Torna al catalogo

THORAD AGENA D DEB

AttivoPO
NORAD 19948·DEBRIS·🇺🇸 United States

Lanciato Apr 8, 1970 da Vandenberg Space Force Base

Loading…

Prossimi Passaggi (prossime 24 ore)

TLE

AggiornatoSource: Space-Track

Epoca: Sep 14, 2026, 09:18 UTC

1 19948U 70025QD  26257.38780363  .00000075  00000-0  36821-3 0  9990
2 19948  99.5730  81.0950 0411246 218.0063 263.3312 12.74887376650887

Traccia THORAD AGENA D DEB in tempo reale con AllMySat

Download on the App Store